Regional Weather Roundup
Issued by NWS

Home | Current Version | Previous Version | Graphics & Text | Print | Product List | Glossary On
Versions: 1 2 3 4 5 6 7 8 9 10 11 12 13 14 15 16 17 18 19 20 21 22 23 24 25 26 27 28 29 30 31 32 33 34 35 36 37 38 39 40 41 42 43 44 45 46 47 48 49 50
000
ASUS45 KTFX 011104
RWRMT
MONTANA HOURLY WEATHER ROUNDUP
NATIONAL WEATHER SERVICE GREAT FALLS MT
404 AM MST SUN FEB 1 2015

NOTE: "FAIR" INDICATES FEW OR NO CLOUDS BELOW 12000 FEET WITH NO
SIGNIFICANT WEATHER AND/OR OBSTRUCTIONS TO VISIBILITY.

* THESE STATIONS ARE NOT UNDER NWS QUALITY CONTROL. THEY DO NOT
   REPORT WEATHER SUCH AS PRECIPITATION OR FOG.

MTZ001>007-043-011200-
WEST OF THE DIVIDE
CITY           SKY/WX    TMP DP  RH WIND       PRES   REMARKS
KALISPELL      CLEAR     18  10  71 NE8       30.24F WCI   8
MISSOULA       CLEAR     27  18  69 SE8       30.24F WCI  19
BUTTE          CLEAR     12   9  88 SE3       30.17F
MULLAN PASS    CLOUDY    21  18  88 SE10      30.09F WCI  10
* ANACONDA     PTCLDY    16  10  77 N/A        N/A
* ESSEX        N/A       11   6  80 SE6        N/A   WCI   1
* LINCOLN      N/A        5   1  83 NE1        N/A
* LOOKOUT PASS N/A       21  19  92 S2         N/A
* POLSON       N/A       20  19  96 N/A        N/A
* RONAN APT    CLEAR     27  27 100 N/A        N/A
* SEELEY LAKE  N/A       19  12  74 NW1        N/A
* THOMP F APT  PTCLDY    14   9  80 N4         N/A
* YAAK HILL    N/A       29  24  82 N/A        N/A
$$

MTZ008-052>055-011200-
SOUTHWEST MONTANA
CITY           SKY/WX    TMP DP  RH WIND       PRES   REMARKS
BOZEMAN        CLOUDY    18  12  77 CALM      30.25F
DILLON         PTCLDY     9   5  84 SE3       30.19F
* W YELLOWSTON PTCLDY    14  11  88 N/A        N/A
* THREE FORKS  PTCLDY    18  18 100 N/A        N/A
* BOULDER HILL N/A       11   7  84 S7         N/A
* MONIDA PASS  N/A        9   8  96 E1         N/A
* RAYNOLDS PAS N/A       10 -20  24 NE1        N/A
* WHITEHALL    N/A       14   9  80 NW3        N/A
* WISE RIVER   N/A       11   7  84 W1         N/A
$$

MTZ009>010-012-014-046-048-049-054-011200-
EAST SLOPES AND CENTRAL MONTANA
CITY           SKY/WX    TMP DP  RH WIND       PRES   REMARKS
CUT BANK       CLEAR     -2  -8  75 SE8       30.24F WCI -17
GREAT FALLS    FOG        1   0  95 CALM      30.28F VSB M1/4
HELENA         CLOUDY    16  10  77 CALM      30.29F
MALMSTROM AFB  CLOUDY    -6  -8  91 S5        30.31F WCI -18
* DEARBORN     N/A        3   0  87 S2         N/A
* EAST GLACIER N/A        5   2  87 NW4        N/A
* MONARCH      N/A        2  -3  79 E1         N/A
* PENDROY      N/A        4   2  91 SW10       N/A   WCI -11
* ROGERS PASS  N/A        9   4  80 SE6        N/A   WCI  -1
* SWEET GRASS  N/A       -2  -6  83 NW5        N/A   WCI -13
$$

MTZ011-013-016-021-035-040-045-047-050-051-011200-
NORTH CENTRAL MONTANA
CITY           SKY/WX    TMP DP  RH WIND       PRES   REMARKS
HAVRE          CLOUDY    -9 -13  82 W3        30.41F
LEWISTOWN      MOCLDY     3   0  87 CALM      30.28F
* N BAR RANCH  CLEAR      3  -2  79 CALM      30.26F
* CHESTER      N/A       -9 -15  74 N/A        N/A
* DENTON       N/A       -1  -3  91 SE3        N/A
* GEYSER       N/A        0  -3  87 SW7        N/A   WCI -13
* JUDITH GAP   N/A        2   1  96 N7         N/A   WCI -11
* LOMA         N/A       -7 -11  82 W1         N/A
$$

MTZ017>020-022>027-061-062-011200-
NORTHEAST MONTANA
CITY           SKY/WX    TMP DP  RH WIND       PRES   REMARKS
GLASGOW        MOCLDY    -2  -6  83 S5        30.45S WCI -13
GLENDIVE       MOCLDY    -4  -6  91 CALM      30.43S
JORDAN         CLEAR      1  -2  87 CALM      30.41F
SIDNEY         CLOUDY    -6 -17  58 NW3       30.50F
WOLF POINT     MOCLDY     0  -6  75 CALM      30.50F
* BEAVER HILL  N/A       -5  -9  82 VRB3       N/A
* CIRCLE       N/A       -1  -4  87 NE2        N/A
* LINDSAY DVD  N/A       -5  -9  82 NW6        N/A   WCI -18
* NAVAJO       N/A       -8 -13  78 NW7        N/A   WCI -23
* SACO         N/A      -15 -21  74 N/A        N/A
$$

MTZ028>042-056>058-011200-
SOUTHCENTRAL AND SOUTHEAST MONTANA
CITY           SKY/WX    TMP DP  RH WIND       PRES   REMARKS
BAKER          LGT SNOW   0  -6  75 NW9       30.36S WCI -15
BILLINGS       CLOUDY     9   7  91 E3        30.34F
LIVINGSTON     CLOUDY    18  10  71 E5        30.22F WCI  11
MILES CITY     LGT SNOW   1  -2  87 CALM      30.42S
* LAUREL APT   CLEAR      7   0  73 N/A        N/A
* ROUNDUP APT  CLEAR      7  -2  66 N/A        N/A
* ALZADA       N/A      N/A N/A N/A NW6        N/A
* HYSHAM       N/A        1  -2  87 SE1        N/A
* LAME DEER    N/A        0  -4  83 NW4        N/A
* REED POINT   N/A       11   8  88 E3         N/A
* ROSCOE HILL  N/A        8   4  84 VRB3       N/A
$$

REGIONAL REPORTS...DAKOTAS
CITY           SKY/WX    TMP DP  RH WIND       PRES   REMARKS
WILLISTON      PTCLDY   -15 -20  77 W3        30.48F
DICKINSON      LGT SNOW  -4  -9  79 N7        30.37R WCI -18
CROSBY         CLEAR     -8 -15  71 CALM      30.49F
WATFORD CITY   CLEAR     -8 -13  78 N3        30.45F
BISMARCK       CLOUDY    -6 -13  71 N13       30.48R WCI -26
GRAND FORKS    MOCLDY   -11 -18  70 N15       30.57S WCI -33
FARGO          CLOUDY    -6 -13  71 N20       30.47S WCI -30
BUFFALO SD     CLOUDY     0  -6  75 N10       30.25R WCI -16
RAPID CITY     CLOUDY     5   1  83 N16       30.24S WCI -14
$$

REGIONAL REPORTS...WYOMING/IDAHO/WASHINGTON
CITY           SKY/WX    TMP DP  RH WIND       PRES   REMARKS
GILLETTE       CLOUDY     7   3  83 N14       30.22R WCI -10
SHERIDAN       CLOUDY    10   3  73 NW17      30.30R WCI  -8
CODY           CLOUDY    10  10 100 NE8       30.20S WCI  -2
YELLOWSTONE LA PTCLDY     1  -2  87 CALM      30.12S
SALMON         CLOUDY    23  19  85 CALM      30.25F
MULLAN PASS    CLOUDY    21  18  88 SE10      30.09S WCI  10
SAND POINT     CLOUDY    32  28  85 E3        30.25F
SPOKANE        CLOUDY    28  28 100 NE3       30.24R

$$



USA.gov is the U.S. government's official web portal to all federal, state and local government web resources and services.